Aérodrome :
LOGIN :

S'inscrire | Disclaimer

   EN    FR    IT 

 










Légende :    VFR   VFR Marginal   IFR   IFR Intensif   IFR Très Intensif
Visi : 
Plafond : 
>= 8 km
>= 3000ft
5 à 8 km
1000 à 3000 ft
1500m à 5 km
500 à 1000 ft
800 à 1500m
200 à 500 ft
< 800m
< 200 ft
Symboles :   Orages  Brouillard  Fortes neiges  Fortes précipitations  Vent > 20 kt
SIGMETs :   Divers  Orages  Givrage  Turbulence  Onde Orograph.  Cendres Volcan.







- Altitude de l'aérodrome : 27 ft
- Code IATA : PMI


LEPA - Palma de Mallorca

DERNIER METAR :
  • 250430Z 06008KT 030V100 CAVOK 15/10 Q1015 NOSIG

METARs EXPIRÉS :
  • 250400Z 06010KT CAVOK 15/10 Q1015 NOSIG
  • 250330Z 07007KT CAVOK 15/10 Q1015 NOSIG
  • 250300Z 08003KT 050V110 CAVOK 15/10 Q1015 NOSIG
  • 250230Z 08005KT 050V110 CAVOK 15/10 Q1015 NOSIG
  • 250200Z 07005KT CAVOK 15/10 Q1015 NOSIG

TAF TAF LEPA
Valide du 25 à 00h jusqu'au 26 à 00h UTC


242300Z 2500/2524 05008KT 9999 FEW025 TX25/2512Z TN14/2506Z
BECMG 2509/2511 12010KT
TEMPO 2510/2512 10011G23KT
BECMG 2517/2519 03008KT
Pas de NOTAMs connus pour ce terrain.



MET'MAP, la Météo Aéronautique d'un coup d'oeil ! - Copyright ORBIFLY Décembre 2007 - Disclaimer

ORBIFLY MET'MAP TEAM :

Programmation & Développement : Alexandra Zaïnal
Conception & Développement : Baudouin d'Aumeries
Co-Programmation & Développement : Marc-Olivier Méhu
Soutien technique & logistique : Manuel Goepfert

Contact : metmap@orbifly.com




SOURCES & CREDITS :

   NOAA